Weather History for Tapachula Airport, Mexico

Change the Weather History Date:

Thursday, January 3, 2013

  Actual Average Record
Temperature  
Mean Temperature 81 °F -  
Max Temperature 89 °F 86 °F 89 °F (1997)
Min Temperature 73 °F 71 °F 69 °F (2003)
Cooling Degree Days 16    
Growing Degree Days 31 (Base 50)    
Moisture  
Dew Point 73 °F    
Average Humidity 76    
Maximum Humidity 89    
Minimum Humidity 58    
Precipitation  
Precipitation 0.00 in - - ()
Sea Level Pressure  
Sea Level Pressure 29.88 in    
Wind  
Wind Speed 1 mph ()    
Max Wind Speed 14 mph    
Max Gust Speed -    
Visibility 10.0 miles    
Events      
Averages and records for this station are not official NWS values.
T = Trace of Precipitation, MM = Missing Value Source: Averaged Metar Reports

Daily Weather History Graph

Daily Weather History Graph

Search for Another Location

Airport:

Trip Planner

Search our weather history database for the weather conditions in past years. The results will help you decide how hot, cold, wet, or windy it might be!

Date:

Astronomy

Jan. 03, 2013 Rise Set
Actual Time 6:35 AM CST 5:52 PM CST
Civil Twilight 6:12 AM CST 6:15 PM CST
Nautical Twilight 5:45 AM CST 6:42 PM CST
Astronomical Twilight 5:19 AM CST 7:08 PM CST
Moon 11:21 PM CST (1/3) 10:49 AM CST (1/3)
Length of Visible Light 12h 03m
Length of Day
11h 16m
Waning Gibbous, 65% of the Moon is Illuminated
Jan 3
Waning Gibbous
Jan 4
Last Quarter
Jan 11
New
Jan 18
First Quarter
Jan 26
Full

Hourly Weather History & Observations

Time (CST) Temp. Heat Index Dew Point Humidity Pressure Visibility Wind Dir Wind Speed Gust Speed Precip Events Conditions
12:40 AM 77.0 °F - 71.6 °F 83% 29.91 in 10.0 mi Calm Calm - N/A   Scattered Clouds
1:40 AM 78.8 °F - 75.2 °F 89% 29.92 in 10.0 mi Calm Calm - N/A   Scattered Clouds
3:42 AM 75.2 °F - 71.6 °F 89% 29.88 in 10.0 mi Calm Calm - N/A   Scattered Clouds
4:43 AM 75.2 °F - 71.6 °F 89% 29.88 in 10.0 mi Calm Calm - N/A   Scattered Clouds
5:40 AM 73.4 °F - 69.8 °F 88% 29.79 in 10.0 mi Calm Calm - N/A   Scattered Clouds
6:40 AM 77.0 °F - 69.8 °F 78% 29.91 in 10.0 mi Calm Calm - N/A   Scattered Clouds
7:40 AM 77.0 °F - 68.0 °F 74% 29.91 in 10.0 mi Calm Calm - N/A   Clear
8:40 AM 80.6 °F 83.9 °F 69.8 °F 70% 29.80 in 10.0 mi Calm Calm - N/A   Clear
9:40 AM 86.0 °F 93.4 °F 73.4 °F 66% 29.93 in 10.0 mi Calm Calm - N/A   Clear
10:40 AM 87.8 °F 93.8 °F 71.6 °F 58% 29.93 in 10.0 mi Calm Calm - N/A   Clear
11:40 AM 89.6 °F 99.8 °F 75.2 °F 62% 29.88 in 10.0 mi Calm Calm - N/A   Clear
12:40 PM 87.8 °F 97.6 °F 75.2 °F 66% 29.87 in 10.0 mi SSW 13.8 mph - N/A   Partly Cloudy
1:40 PM 87.8 °F 95.6 °F 73.4 °F 62% 29.85 in 10.0 mi SSW 11.5 mph - N/A   Partly Cloudy
2:40 PM 87.8 °F 95.6 °F 73.4 °F 62% 29.85 in 10.0 mi SSW 6.9 mph - N/A   Partly Cloudy
3:40 PM 86.0 °F 93.4 °F 73.4 °F 66% 29.85 in 10.0 mi SSW 6.9 mph - N/A   Partly Cloudy
4:40 PM 86.0 °F 93.4 °F 73.4 °F 66% 29.85 in 10.0 mi Calm Calm - N/A   Partly Cloudy
5:40 PM 82.4 °F 89.5 °F 75.2 °F 79% 29.81 in 10.0 mi West 5.8 mph - N/A   Partly Cloudy
6:40 PM 82.4 °F 89.5 °F 75.2 °F 79% 29.86 in 10.0 mi Calm Calm - N/A   Partly Cloudy
7:40 PM 80.6 °F 85.4 °F 73.4 °F 79% 29.90 in 10.0 mi Calm Calm - N/A   Partly Cloudy
8:40 PM 80.6 °F 85.4 °F 73.4 °F 79% 29.83 in 10.0 mi Calm Calm - N/A   Scattered Clouds
9:40 PM 78.8 °F - 73.4 °F 83% 29.95 in 10.0 mi Calm Calm - N/A   Scattered Clouds
10:40 PM 78.8 °F - 75.2 °F 89% 29.95 in 10.0 mi Calm Calm - N/A   Scattered Clouds
11:40 PM 78.8 °F - 73.4 °F 83% 29.89 in 10.0 mi Calm Calm - N/A   Scattered Clouds